Home > Weather > Doha > Past weeks

Flag for Qatar Weather for the Past 2 Weeks in Doha, Qatar

Now
66 °F

Passing clouds.


Feels Like: 66 °F
Forecast: 57 / 75 °F
Wind: 8 mph from Northwest

Location: Doha International Airport

Current Time: Feb 14, 2016 at 9:09:25 PM

Latest Report: Feb 14, 2016 at 8:00 PM


Visibility: N/A

Pressure: 30.12 "Hg

Humidity: 60%

Dew point: 52 °F

Location of DohaLocation

Historic Weather in Doha — Graph

°F

Doha Temperature Yesterday

Maximum temperature yesterday: 73 °F (at 2:00 PM)
Minimum temperature yesterday: 57 °F (at 4:30 AM)
Average temperature yesterday: 65 °F

High & Low Weather Summary for the Past Weeks

 TemperatureHumidityPressure
High82 °F (Feb 8, 2:00 PM)94% (Feb 6, 6:30 AM)30.30 "Hg (Feb 6, 6:30 AM)
Low52 °F (Jan 31, 5:00 AM)9% (Feb 8, 1:30 PM)29.95 "Hg (Feb 7, 3:00 PM)
Average64 °F54%30.13 "Hg
* Reported Jan 30 8:00 PM — Feb 14 8:00 PM, Doha, Weather by CustomWeather, © 2016

Note: Actual official high and low records may vary slightly from our data, if they occured in-between our weather recording intervals... More about our weather records

Advertising

Doha Weather History for the Previous 24 Hours

 ConditionsComfort  
Time TempWeatherWind HumidityBarometerVisibility
8:00 PM
Sun, Feb 14
66 °FPassing clouds.8 mph60%30.12 "HgN/A
7:00 PM66 °FClear.6 mph68%30.12 "Hg10 mi
6:00 PM66 °FClear.7 mph68%30.12 "Hg10 mi
5:30 PM66 °FClear.8 mph68%30.09 "Hg10 mi
5:00 PM68 °FSunny.9 mph60%30.09 "Hg10 mi
4:00 PM70 °FSunny.10 mph50%30.09 "Hg10 mi
3:30 PM70 °FSunny.14 mph50%30.09 "Hg10 mi
3:00 PM70 °FSunny.9 mph50%30.07 "Hg10 mi
2:00 PM72 °FPassing clouds.8 mph44%30.09 "HgN/A
1:00 PM73 °FPassing clouds.9 mph41%30.09 "HgN/A
12:00 PM70 °FPassing clouds.9 mph50%30.12 "HgN/A
11:30 AM70 °FPassing clouds.9 mph46%30.15 "HgN/A
11:00 AM70 °FPassing clouds.12 mph46%30.15 "HgN/A
10:00 AM68 °FPassing clouds.9 mph53%30.18 "HgN/A
9:00 AM64 °FPassing clouds.8 mph56%30.18 "HgN/A
8:00 AM63 °FPassing clouds.6 mph59%30.15 "HgN/A
7:00 AM61 °FPassing clouds.5 mph63%30.15 "HgN/A
6:30 AM59 °FPassing clouds.5 mph68%30.12 "HgN/A
5:00 AM59 °FPassing clouds.7 mph72%30.09 "HgN/A
4:00 AM59 °FPassing clouds.6 mph68%30.09 "HgN/A
2:00 AM61 °FPassing clouds.3 mph68%30.09 "HgN/A
1:30 AM61 °FPassing clouds.5 mph68%30.09 "HgN/A
1:00 AM61 °FPassing clouds.3 mph68%30.09 "HgN/A
12:00 AM63 °FPassing clouds.5 mph59%30.09 "HgN/A
11:00 PM
Sat, Feb 13
63 °FPassing clouds.6 mph64%30.12 "HgN/A
10:00 PM63 °FClear.7 mph64%30.12 "Hg10 mi
9:00 PM63 °FPassing clouds.6 mph64%30.12 "HgN/A
Weather by CustomWeather, © 2016

See weather overviewHow to use our weather pages